Погода в Каменке

Россия / Новгородская область     57°18′40″N   31°03′37″E
темп.,
°C
ветер,
м/с
пор.,
м/с
влажн.,
%
обл.,
%
осадки,
мм/ч
давл.,
гПа
погр.,
м
8 марта, пн
пн800:00−7зсз4118510 0.0 997521
03:00−8сз5118637 0.0 999612
06:00−8сз499196 0.1 1001715
09:00−8ссз488698 0.1 1004778
12:00−7ссз4776100 0.1 1007890
15:00−6ссз5871100 0.2 10091021
18:00−7с3876100 0.0 1012836
21:00−10ссз279068 0.0 1014221
9 марта, вт
вт900:00−11ссз25940 0.0 1016192
03:00−12ссз25950 0.0 1017169
06:00−13ссз24973 0.0 1018134
09:00−12ссз249030 0.0 1020355
12:00−10ссз2471100 0.0 1021730
15:00−7ссз235895 0.0 1021995
18:00−9с237092 0.0 1021235
21:00−11св367596 0.0 1023280
10 марта, ср
ср1000:00−12всв3681100 0.0 1025397
03:00−13всв3685100 0.0 1026405
06:00−16всв368955 0.0 1027247
09:00−16в368127 0.0 1029288
12:00−11в36550 0.0 1030555
15:00−8в35490 0.0 1030952
18:00−9вюв22650 0.0 103081
21:00−12юв227931 0.0 103134
11 марта, чт
чт1100:00−13ююв248497 0.0 1032120
03:00−14ююв388071 0.0 1032231
06:00−15ююв497440 0.0 1030321
09:00−13ююв4106966 0.0 1030367
12:00−9ю51059100 0.0 1028526
15:00−6ю596693 0.0 1026637
18:00−6ю511750 0.0 1023639
21:00−9ю5158020 0.0 1022545
12 марта, пт
пт1200:00−10ю61582100 0.0 1020590
03:00−9ю61678100 0.0 1016676
06:00−8ююв71776100 0.0 1012808
09:00−7ююв81689100 0.2 1009769
12:00−5ююв81588100 1.5 10061015
15:00−3ю71490100 2.8 1004969
18:00−2ю51292100 1.1 1002618
21:00−1ююз41097100 1.3 1002378